FREGAT R/B, 43509

Orbit data source: Space-Track

FREGAT R/B, 43509 is space debris in MEO originally from a launch on Sat, 16 Jun 2018 UTC launched from the Plesetsk Missile And Space Complex (PKMTR). Debris objects in space refer to the collection of defunct objects orbiting the Earth. Examples of debris include non-operational satellites, rocket bodies, and fragments generated from explosions, collisions, or faulty payload assembly.

Loading next visibility...
Identifier
43509, 2018-053B
Orbit
MEO
Country
Flag of CISCIS
Related business
Manufacturer
Lavochkin
Mission
Spacecraft
Bus & Motor
FREGAT, Unknown motor
Mass
1,000 kg wet, 1,000 kg dry
Launch date (UTC)
2018-06-16 (7 years ago)
Launch vehicle
Unknown
Launch site
Plesetsk Missile And Space Complex (PKMTR)
Object type
Payload
Rocket body
Debris
Shape & HBR
Cyl, 1.7 m
Radar Cross Section
8.354 m², Large (>1 m²)

Expand to show TLE details & history
Last TLE update: 3 days ago

TLE from 3 days ago
0 FREGAT R/B
1 43509U 18053B   25307.70815698  .00000033  00000-0  00000-0 0  9995
2 43509  65.4688  85.2558 0095930  91.2244 269.8611  2.09215665 56427
Epoch: 2025-11-03T16:59Z
TLE epoch observation values (Epoch: 2025-11-03T16:59:44.763Z)
Latitude
0.00001°
Longitude
147.09652°
Altitude
19,448.396 km
Speed
3.928 km/s
True Right ascension
05h 40m 57s
True Declination
0° 00' 00"
Sunlit
Object was in daylight at epoch
Visualization orbit readout
Latitude
Unknown
Longitude
Unknown
Altitude
Unknown
Speed
Unknown
Apparent Right ascension
Unknown
Apparent Declination
Unknown
Sunlit
N/A
Visualization observer readout
Local Sidereal Time
05:07:54
Azimuth
Unknown
Elevation
Unknown
Doppler factor
Unknown
Orbital elements
Apogee altitude
19,692.124 km
Perigee altitude
19,196.693 km
Semi-major axis
25,822.545 km
Eccentricity
0.00959
Inclination
65.4688°
RAAN
85.2558°
Arg. of periapsis
91.2244°
True anomaly
268.76193°
Mean anomaly
269.8611°
Eccentric anomaly
269.3115°
Mean motion
0.52305 °/min
Orbital period
688.27 mins
BSTAR
0
Loading maneuver chart data...
Computing Atmospheric mass density...
Loading historical data...
Loading historical data...
Loading historical data...
Loading historical data...
Loading historical data...
Loading historical data...
Loading historical data...
Other satellites on launch #53 in the year 2018 (2018-06-16 UTC)

Documentation

Showing up to 5 results
|